Volk, WI

12:34 PM CDT on October 17, 2017 (GMT -0500)
Volk

Weather History for KVOK - November, 2013

Change the Weather History Date:

Wednesday, November 20, 2013

  Actual Average Record
Temperature  
Mean Temperature 36 °F -  
Max Temperature 39 °F 37 °F 64 °F (2003)
Min Temperature 32 °F 25 °F -1 °F (2014)
Degree Days  
Heating Degree Days 30    
Moisture  
Dew Point 30 °F    
Average Humidity 84    
Maximum Humidity 100    
Minimum Humidity 61    
Precipitation  
Precipitation 0.03 in - - ()
Sea Level Pressure  
Sea Level Pressure 30.10 in    
Wind  
Wind Speed 9 mph (SE)    
Max Wind Speed 15 mph    
Max Gust Speed 23 mph    
Visibility 7 miles    
Events Rain , Snow    
Averages and records for this station are not official NWS values.
T = Trace of Precipitation, MM = Missing Value Source: NWS Daily Summary

Daily Weather History Graph

Daily Weather History Graph

Search for Another Location

Airport or City:

Trip Planner

Search our weather history database for the weather conditions in past years. The results will help you decide how hot, cold, wet, or windy it might be!

Date:

Astronomy

Nov. 20, 2013 Rise Set
Actual Time 7:02 AM CST 4:30 PM CST
Civil Twilight 6:31 AM CST 5:02 PM CST
Nautical Twilight 5:55 AM CST 5:37 PM CST
Astronomical Twilight 5:21 AM CST 6:11 PM CST
Moon 7:13 PM CST (11/20) 9:28 AM CST (11/20)
Length of Visible Light 10h 30m
Length of Day
9h 27m
Waning Gibbous, 91% of the Moon is Illuminated
Nov 20
Waning Gibbous
Nov 25
Last Quarter
Dec 2
New
Dec 9
First Quarter
Dec 17
Full

Hourly Weather History & Observations

Time (CST) Temp. Windchill Dew Point Humidity Pressure Visibility Wind Dir Wind Speed Gust Speed Precip Events Conditions
12:58 AM 36.7 °F 27.6 °F 26.8 °F 67% 30.17 in 10.0 mi SSE 15.0 mph 21.9 mph N/A   Overcast
1:58 AM 37.2 °F 28.3 °F 26.6 °F 65% 30.17 in 10.0 mi SSE 15.0 mph 20.7 mph N/A   Mostly Cloudy
2:58 AM 36.9 °F 27.8 °F 27.1 °F 68% 30.16 in 10.0 mi SSE 15.0 mph 23.0 mph N/A   Mostly Cloudy
3:58 AM 36.9 °F 31.4 °F 27.0 °F 67% 30.16 in 10.0 mi SSE 6.9 mph - N/A   Scattered Clouds
4:58 AM 36.7 °F 29.9 °F 26.6 °F 67% 30.16 in 10.0 mi SE 9.2 mph - N/A   Overcast
5:58 AM 36.5 °F 29.7 °F 27.1 °F 69% 30.13 in 10.0 mi SE 9.2 mph 18.4 mph N/A   Overcast
6:58 AM 35.6 °F 28.0 °F 26.6 °F 70% 30.14 in 10.0 mi SSE 10.4 mph - N/A   Overcast
7:58 AM 35.6 °F 28.6 °F 26.6 °F 70% 30.15 in 10.0 mi SSE 9.2 mph - N/A   Overcast
8:58 AM 35.6 °F 28.0 °F 26.6 °F 70% 30.15 in 10.0 mi SSE 10.4 mph 20.7 mph N/A   Overcast
9:58 AM 37.4 °F 29.3 °F 28.4 °F 70% 30.16 in 10.0 mi SSE 12.7 mph 19.6 mph N/A   Mostly Cloudy
10:58 AM 37.4 °F 30.8 °F 26.6 °F 65% 30.15 in 10.0 mi SSE 9.2 mph - N/A   Mostly Cloudy
11:59 AM 39.2 °F 32.5 °F 26.6 °F 61% 30.14 in 10.0 mi SSE 10.4 mph - N/A   Overcast
12:58 PM 39.2 °F 32.0 °F 26.6 °F 61% 30.12 in 10.0 mi South 11.5 mph - N/A   Partly Cloudy
1:58 PM 39.2 °F 33.6 °F 26.6 °F 61% 30.09 in 10.0 mi SE 8.1 mph - N/A   Overcast
2:24 PM 39.2 °F 35.9 °F 26.6 °F 61% 30.05 in 10.0 mi SE 4.6 mph - N/A   Unknown
2:58 PM 37.4 °F - 28.4 °F 70% 30.09 in 10.0 mi Variable 2.3 mph - N/A Snow Light Snow
3:06 PM 37.4 °F 34.9 °F 28.4 °F 70% 30.05 in 10.0 mi SE 3.5 mph - N/A   Overcast
3:58 PM 39.2 °F 34.2 °F 26.6 °F 61% 30.09 in 10.0 mi ESE 6.9 mph - N/A   Overcast
4:58 PM 37.4 °F 29.8 °F 30.2 °F 75% 30.09 in 10.0 mi SE 11.5 mph - N/A   Overcast
5:13 PM 35.6 °F 28.6 °F 30.2 °F 81% 30.04 in 10.0 mi ESE 9.2 mph - N/A Snow Light Snow
5:58 PM 35.6 °F 29.2 °F 32.0 °F 87% 30.09 in 10.0 mi ESE 8.1 mph - N/A Snow Light Snow
6:42 PM 32.0 °F 25.6 °F 32.0 °F 100% 30.06 in 10.0 mi ESE 6.9 mph - N/A   Overcast
6:58 PM 33.8 °F 28.6 °F 33.8 °F 100% 30.10 in 5.0 mi ESE 5.8 mph - N/A   Overcast
7:26 PM 32.0 °F 25.6 °F 32.0 °F 100% 30.06 in 4.0 mi SE 6.9 mph - N/A   Overcast
7:58 PM 33.8 °F 27.0 °F 33.8 °F 100% 30.10 in 4.0 mi SE 8.1 mph - N/A   Overcast
8:37 PM 33.8 °F 27.7 °F 33.8 °F 100% 30.06 in 4.0 mi SE 6.9 mph - N/A   Overcast
8:42 PM 33.8 °F 28.6 °F 33.8 °F 100% 30.06 in 4.0 mi ESE 5.8 mph - N/A   Overcast
8:47 PM 33.8 °F 29.6 °F 33.8 °F 100% 30.06 in 3.0 mi ESE 4.6 mph - N/A Snow Light Snow
8:52 PM 32.0 °F 24.2 °F 32.0 °F 100% 30.06 in 3.0 mi ESE 9.2 mph - N/A Snow Light Snow
8:58 PM 33.4 °F 27.3 °F 33.4 °F 100% 30.10 in 4.0 mi ESE 6.9 mph - 0.02 in Rain Light Rain
9:03 PM 32.0 °F 24.8 °F 32.0 °F 100% 30.05 in 3.0 mi ESE 8.1 mph - N/A Rain Light Rain
9:12 PM 32.0 °F 25.6 °F 32.0 °F 100% 30.06 in 4.0 mi ESE 6.9 mph - N/A   Overcast
9:38 PM 32.0 °F 26.4 °F 32.0 °F 100% 30.06 in 5.0 mi SE 5.8 mph - N/A   Overcast
9:48 PM 32.0 °F - 32.0 °F 100% 30.06 in 5.0 mi ESE 2.3 mph - N/A   Overcast
9:58 PM 33.4 °F 29.1 °F 33.4 °F 100% 30.10 in 5.0 mi SE 4.6 mph - 0.01 in   Overcast
10:08 PM 32.0 °F 27.5 °F 32.0 °F 100% 30.06 in 5.0 mi SE 4.6 mph - N/A   Overcast
10:13 PM 32.0 °F 27.5 °F 32.0 °F 100% 30.06 in 5.0 mi SE 4.6 mph - N/A   Overcast
10:18 PM 33.8 °F - 33.8 °F 100% 30.06 in 5.0 mi Variable 2.3 mph - N/A   Overcast
10:38 PM 33.8 °F 30.8 °F 33.8 °F 100% 30.06 in 5.0 mi ESE 3.5 mph - N/A   Overcast
10:58 PM 33.8 °F 30.8 °F 33.8 °F 100% 30.10 in 5.0 mi ESE 3.5 mph - N/A   Overcast
11:00 PM 33.8 °F - 33.8 °F 100% 30.06 in 6.0 mi SE 2.3 mph - N/A   Overcast
11:58 PM 35.6 °F 32.8 °F 35.6 °F 100% 30.11 in 7.0 mi SSE 3.5 mph - N/A   Overcast